Weather History for Rush City, MN

Change the Weather History Date:

Tuesday, January 22, 2013

  Actual Average (KCBG) Record (KCBG)
Temperature  
Mean Temperature -10 °F -  
Max Temperature 0 °F 25 °F 48 °F (1981)
Min Temperature -19 °F 6 °F -30 °F (1963)
Degree Days  
Heating Degree Days 74    
Moisture  
Dew Point -17 °F    
Average Humidity 68    
Maximum Humidity 78    
Minimum Humidity 55    
Precipitation  
Precipitation 0.00 in - - ()
Sea Level Pressure  
Sea Level Pressure 30.30 in    
Wind  
Wind Speed 4 mph (WSW)    
Max Wind Speed 9 mph    
Max Gust Speed -    
Visibility 10 miles    
Events      
Averages and records for this station are not official NWS values.
T = Trace of Precipitation, MM = Missing Value Source: NWS Daily Summary

Daily Weather History Graph

Daily Weather History Graph

Search for Another Location

Airport:

Trip Planner

Search our weather history database for the weather conditions in past years. The results will help you decide how hot, cold, wet, or windy it might be!

Date:

Astronomy

Jan. 22, 2013 Rise Set
Actual Time 7:43 AM CST 5:04 PM CST
Civil Twilight 7:10 AM CST 5:36 PM CST
Nautical Twilight 6:34 AM CST 6:13 PM CST
Astronomical Twilight 5:59 AM CST 6:48 PM CST
Moon 1:25 PM CST 4:07 AM CST
Length of Visible Light 10h 25m
Length of Day
9h 20m
Waxing Gibbous, 83% of the Moon is Illuminated
Jan 22
Waxing Gibbous
Jan 26
Full
Feb 3
Last Quarter
Feb 10
New
Feb 17
First Quarter

Hourly Weather History & Observations

Time (CST) Temp. Windchill Dew Point Humidity Pressure Visibility Wind Dir Wind Speed Gust Speed Precip Events Conditions
12:15 AM -13.9 °F -26.1 °F -19.8 °F 75% 30.26 in 10.0 mi West 4.6 mph - N/A   Mostly Cloudy
12:34 AM -14.1 °F -26.3 °F -20.2 °F 74% 30.26 in 10.0 mi West 4.6 mph - N/A   Mostly Cloudy
12:55 AM -13.7 °F -27.8 °F -19.7 °F 75% 30.27 in 10.0 mi West 5.8 mph - N/A   Mostly Cloudy
1:15 AM -13.2 °F -27.2 °F -19.5 °F 73% 30.28 in 10.0 mi West 5.8 mph - N/A   Scattered Clouds
1:34 AM -13.7 °F -27.8 °F -19.8 °F 74% 30.28 in 10.0 mi West 5.8 mph - N/A   Scattered Clouds
1:55 AM -14.3 °F -26.5 °F -20.4 °F 74% 30.29 in 10.0 mi West 4.6 mph - N/A   Mostly Cloudy
2:15 AM -14.8 °F -24.8 °F -20.6 °F 75% 30.30 in 10.0 mi WNW 3.5 mph - N/A   Mostly Cloudy
2:34 AM -15.0 °F -25.0 °F -20.7 °F 75% 30.31 in 10.0 mi WNW 3.5 mph - N/A   Scattered Clouds
2:55 AM -14.8 °F - -20.6 °F 75% 30.31 in 10.0 mi Calm Calm - N/A   Scattered Clouds
3:15 AM -15.7 °F -28.2 °F -21.3 °F 76% 30.31 in 10.0 mi West 4.6 mph - N/A   Mostly Cloudy
3:35 AM -15.9 °F - -21.1 °F 77% 30.31 in 10.0 mi Calm Calm - N/A   Scattered Clouds
3:55 AM -15.9 °F -26.0 °F -21.5 °F 76% 30.31 in 10.0 mi West 3.5 mph - N/A   Mostly Cloudy
4:15 AM -16.6 °F -26.8 °F -22.2 °F 76% 30.31 in 10.0 mi West 3.5 mph - N/A   Mostly Cloudy
4:35 AM -16.6 °F -26.8 °F -22.2 °F 76% 30.32 in 10.0 mi West 3.5 mph - N/A   Mostly Cloudy
4:55 AM -17.1 °F -27.4 °F -22.9 °F 75% 30.32 in 10.0 mi West 3.5 mph - N/A   Mostly Cloudy
5:14 AM -17.0 °F - -22.4 °F 76% 30.33 in 10.0 mi Calm Calm - N/A   Scattered Clouds
5:35 AM -17.0 °F - -22.7 °F 75% 30.33 in 10.0 mi Calm Calm - N/A   Mostly Cloudy
5:55 AM -18.6 °F - -24.2 °F 76% 30.33 in 10.0 mi Calm Calm - N/A   Mostly Cloudy
6:15 AM -18.4 °F - -23.4 °F 78% 30.33 in 10.0 mi Calm Calm - N/A   Mostly Cloudy
6:54 AM -18.8 °F - -24.5 °F 75% 30.34 in 10.0 mi Calm Calm - N/A   Scattered Clouds
7:15 AM -19.3 °F - -25.1 °F 75% 30.33 in 10.0 mi Calm Calm - N/A   Mostly Cloudy
7:35 AM -19.3 °F - -24.7 °F 76% 30.33 in 10.0 mi Calm Calm - N/A   Scattered Clouds
7:55 AM -19.1 °F - -24.3 °F 77% 30.33 in 10.0 mi Calm Calm - N/A   Scattered Clouds
8:15 AM -17.7 °F - -23.1 °F 76% 30.33 in 10.0 mi Calm Calm - N/A   Clear
8:34 AM -16.2 °F - -21.6 °F 77% 30.33 in 10.0 mi Calm Calm - N/A   Clear
8:55 AM -14.1 °F -23.9 °F -19.5 °F 77% 30.34 in 10.0 mi WSW 3.5 mph - N/A   Clear
9:14 AM -13.0 °F -28.6 °F -19.1 °F 74% 30.36 in 10.0 mi WSW 6.9 mph - N/A   Clear
9:35 AM -12.1 °F -25.9 °F -19.1 °F 71% 30.36 in 10.0 mi West 5.8 mph - N/A   Clear
9:55 AM -10.8 °F -24.4 °F -19.1 °F 67% 30.35 in 10.0 mi West 5.8 mph - N/A   Clear
10:14 AM -9.9 °F -19.2 °F -18.9 °F 65% 30.36 in 10.0 mi WSW 3.5 mph - N/A   Clear
10:35 AM -8.7 °F -21.9 °F -18.6 °F 62% 30.37 in 10.0 mi WSW 5.8 mph - N/A   Clear
10:55 AM -8.9 °F -18.0 °F -18.8 °F 62% 30.36 in 10.0 mi WSW 3.5 mph - N/A   Clear
11:14 AM -8.9 °F -23.6 °F -18.0 °F 64% 30.36 in 10.0 mi SW 6.9 mph - N/A   Clear
11:35 AM -7.4 °F -20.4 °F -18.0 °F 60% 30.35 in 10.0 mi SW 5.8 mph - N/A   Clear
11:55 AM -6.3 °F -20.6 °F -16.6 °F 61% 30.35 in 10.0 mi WSW 6.9 mph - N/A   Clear
12:14 PM -5.4 °F -19.5 °F -16.6 °F 59% 30.35 in 10.0 mi WSW 6.9 mph - N/A   Clear
12:35 PM -3.8 °F -16.1 °F -15.5 °F 57% 30.34 in 10.0 mi WSW 5.8 mph - N/A   Clear
12:54 PM -3.5 °F -15.7 °F -15.5 °F 56% 30.33 in 10.0 mi West 5.8 mph - N/A   Clear
1:15 PM -3.1 °F -19.1 °F -15.5 °F 55% 30.32 in 10.0 mi WSW 9.2 mph - N/A   Clear
1:35 PM -3.5 °F -15.7 °F -15.5 °F 56% 30.32 in 10.0 mi SW 5.8 mph - N/A   Clear
1:54 PM -2.9 °F -16.5 °F -15.0 °F 56% 30.31 in 10.0 mi SW 6.9 mph - N/A   Clear
2:15 PM -3.1 °F -15.2 °F -14.8 °F 57% 30.30 in 10.0 mi SSW 5.8 mph - N/A   Clear
2:35 PM -2.0 °F -13.9 °F -13.9 °F 57% 30.30 in 10.0 mi WSW 5.8 mph - N/A   Clear
2:54 PM -2.0 °F -10.1 °F -13.9 °F 57% 30.30 in 10.0 mi SW 3.5 mph - N/A   Clear
3:15 PM -1.3 °F -9.3 °F -13.0 °F 58% 30.30 in 10.0 mi WSW 3.5 mph - N/A   Clear
3:35 PM -0.8 °F -10.8 °F -13.0 °F 56% 30.30 in 10.0 mi SW 4.6 mph - N/A   Clear
3:54 PM -0.9 °F -12.7 °F -12.8 °F 57% 30.29 in 10.0 mi SW 5.8 mph - N/A   Clear
4:15 PM -0.8 °F -10.8 °F -12.5 °F 58% 30.28 in 10.0 mi WSW 4.6 mph - N/A   Clear
4:35 PM -0.8 °F -12.5 °F -12.5 °F 58% 30.28 in 10.0 mi WSW 5.8 mph - N/A   Clear
4:54 PM -0.9 °F -14.1 °F -12.3 °F 59% 30.28 in 10.0 mi WSW 6.9 mph - N/A   Clear
5:15 PM -0.9 °F -11.0 °F -11.4 °F 61% 30.28 in 10.0 mi SW 4.6 mph - N/A   Clear
5:35 PM -0.9 °F -14.1 °F -11.4 °F 61% 30.28 in 10.0 mi SW 6.9 mph - N/A   Clear
5:55 PM -0.8 °F -12.5 °F -10.8 °F 62% 30.27 in 10.0 mi SSW 5.8 mph - N/A   Clear
6:15 PM -0.9 °F -8.9 °F -10.5 °F 64% 30.27 in 10.0 mi SW 3.5 mph - N/A   Clear
6:34 PM -1.5 °F -13.3 °F -10.7 °F 65% 30.26 in 10.0 mi SW 5.8 mph - N/A   Clear
6:55 PM -1.8 °F -16.4 °F -11.2 °F 64% 30.25 in 10.0 mi SSW 8.1 mph - N/A   Clear
7:15 PM -2.2 °F -14.2 °F -11.2 °F 66% 30.25 in 10.0 mi SW 5.8 mph - N/A   Clear
7:35 PM -2.2 °F -12.5 °F -11.2 °F 66% 30.26 in 10.0 mi SW 4.6 mph - N/A   Clear
7:55 PM -2.6 °F -10.8 °F -11.2 °F 67% 30.25 in 10.0 mi SW 3.5 mph - N/A   Clear
8:15 PM -2.9 °F -13.3 °F -11.2 °F 68% 30.24 in 10.0 mi SSW 4.6 mph - N/A   Mostly Cloudy
8:35 PM -3.5 °F -11.8 °F -11.4 °F 69% 30.24 in 10.0 mi SSW 3.5 mph - N/A   Mostly Cloudy
8:55 PM -4.0 °F -14.6 °F -11.6 °F 70% 30.24 in 10.0 mi SW 4.6 mph - N/A   Scattered Clouds
9:15 PM -4.0 °F -14.6 °F -11.4 °F 71% 30.24 in 10.0 mi SW 4.6 mph - N/A   Mostly Cloudy
9:35 PM -4.0 °F -14.6 °F -11.2 °F 71% 30.24 in 10.0 mi SW 4.6 mph - N/A   Mostly Cloudy
9:55 PM -4.0 °F -14.6 °F -11.2 °F 71% 30.23 in 10.0 mi SW 4.6 mph - N/A   Overcast
10:15 PM -4.0 °F -12.4 °F -10.8 °F 72% 30.23 in 10.0 mi SSW 3.5 mph - N/A   Overcast
10:35 PM -3.6 °F - -10.3 °F 73% 30.23 in 10.0 mi Calm Calm - N/A   Overcast
10:55 PM -3.5 °F - -9.9 °F 74% 30.22 in 10.0 mi Calm Calm - N/A   Overcast
11:15 PM -3.5 °F - -9.6 °F 75% 30.22 in 10.0 mi Calm Calm - N/A   Overcast
11:35 PM -3.3 °F - -9.4 °F 75% 30.22 in 10.0 mi Calm Calm - N/A   Overcast
11:55 PM -3.1 °F - -9.0 °F 76% 30.21 in 10.0 mi Calm Calm - N/A   Overcast